Content
SEND FEEDBACK

Daily
Averages
Monthly
Summary
United States of America

PUT IN BAY, OHIO


Home > North America > United States > Ohio
Elevation: 561 feet     Latitude: 41 39N     Longitude: 082 48W

WEATHER
 
SELECT A DAY
Number of Records: 122,500;   Date Range: 12/10/00 - 7/27/14
 
SHARE

PRINT THIS DATA

[ ← Previous Day ]
WEATHER ALMANAC - JUNE 17, 2014
[ Next Day → ]
[ °C ]   °F
Weather ElementAverageHighLow
Temperature76.3 °F88.5 °F (4:00 pm) (2:00 pm)
Dewpoint64 °F69.1 °F (8:00 pm) (7:00 pm)
Humidity65.5 %88 % (1:00 am)48 % (8:00 pm)
Barometer28.65 in29.97 in (1:00 am) (7:00 pm)
Wind Speed8.8 mph17.3 mph (6:00 pm)
Wind Gust26.5 mph (6:00 pm)
Weather ElementAverage
Wind DirectionSW (220.4 °)

Weather ElementTotal
Precipitation---
Heating Degree Days20.8 (Base 65)
Averaged from 25 records on June 17, 2014
WEATHER CONDITIONS BREAKOUT
WIND DIRECTION BREAKOUT
WEATHER BY HOUR - JUNE 17, 2014
[ °C ]   °F
Local TimeTemperatureDewpointHumidityBarometerVisibilityWind DirectionWind SpeedGust SpeedPrecipitationEventsConditions
1:00 AM68.4 °F64.8 °F88 %29.97 inSSE (160°)1.2 mph
2:00 AM69.0 °F64.0 °F81 %29.95 inSouth (190°)2.3 mph
3:00 AM70.2 °F65.1 °F84 %29.96 inSSW (200°)2.3 mph
4:00 AM71.4 °F63.5 °F76 %29.96 inSSW (200°)3.5 mph
6:00 AM73.2 °F68.0 °F84 %29.97 inSSW (210°)4.6 mph
7:00 AM72.7 °F68.4 °F86 %29.97 inSouth (190°)8.1 mph
8:00 AM74.1 °F68.4 °F82 %29.96 inSSW (200°)9.2 mph
8:00 AM74.0 °F68.0 °F78 %29.96 inSSW (200°)9.2 mph
9:00 AM76.5 °F68.5 °F76 %29.96 inSSW (200°)11.5 mph
10:00 AM78.8 °F67.5 °F68 %29.94 inSSW (210°)13.8 mph20.7 mph
11:00 AM82.0 °F68.0 °F62 %29.91 inSSW (210°)11.5 mph18.4 mph
12:00 PM83.8 °F67.1 °F57 %29.87 inSSW (210°)13.8 mph21.9 mph
1:00 PM82.8 °F66.2 °F57 %29.83 inSSW (210°)15.0 mph23.0 mph
2:00 PMCalm
2:00 PM0.0 °F0.0 °F0.00 inNorth
3:00 PM86.9 °F68.0 °F53 %29.82 inWSW (240°)16.1 mph24.2 mph
4:00 PM88.5 °F68.0 °F50 %29.82 inWSW (240°)16.1 mph23.0 mph
5:00 PM88.3 °F67.6 °F50 %29.79 inWSW (240°)16.1 mph24.2 mph
6:00 PM87.3 °F66.9 °F51 %29.81 inWSW (250°)17.3 mph26.5 mph
7:00 PM83.3 °F67.6 °F59 %29.82 inWest (270°)10.4 mph17.3 mph
8:00 PM86.0 °F69.0 °F48 %29.83 inWest (270°)5.8 mph
8:00 PM86.4 °F69.1 °F56 %29.83 inWest (270°)5.8 mph
9:00 PM85.5 °F65.1 °F50 %29.84 inWNW (290°)9.2 mph18.4 mph
10:00 PM82.0 °F63.5 °F53 %29.87 inNW (320°)4.6 mph
11:00 PM79.9 °F63.5 °F57 %29.89 inNW (310°)3.5 mph
Hourly data recorded from CXHA, located miles away from Put In Bay, Ohio







STORIES FROM OUR PARTNERS